Springfield, VT

9:16 PM EDT on May 25, 2017 (GMT -0400)
Hartness State

Weather History for KVSF - December, 2012

Change the Weather History Date:

Wednesday, December 5, 2012

  Actual Average Record
Temperature  
Mean Temperature 40 °F 30 °F  
Max Temperature 51 °F 38 °F 62 °F (2001)
Min Temperature 29 °F 22 °F 0 °F (2003)
Degree Days  
Heating Degree Days 25 35  
Month to date heating degree days 149 173  
Since 1 July heating degree days 1486 1816  
Cooling Degree Days 0 0  
Month to date cooling degree days 0  
Year to date cooling degree days 345  
Moisture  
Dew Point 35 °F    
Average Humidity 72    
Maximum Humidity 100    
Minimum Humidity 43    
Precipitation  
Precipitation 0.19 in 0.12 in 0.19 in (2012)
Month to date precipitation 0.36 0.59  
Year to date precipitation 30.86 41.17  
Sea Level Pressure  
Sea Level Pressure 29.95 in    
Wind  
Wind Speed 6 mph (NW)    
Max Wind Speed 18 mph    
Max Gust Speed 31 mph    
Visibility 7 miles    
Events Rain , Snow    
T = Trace of Precipitation, MM = Missing Value Source: NWS Daily Summary

Daily Weather History Graph

Daily Weather History Graph

Search for Another Location

Airport or City:

Trip Planner

Search our weather history database for the weather conditions in past years. The results will help you decide how hot, cold, wet, or windy it might be!

Date:

Astronomy

Dec. 05, 2012 Rise Set
Actual Time 7:07 AM EST 4:14 PM EST
Civil Twilight 6:35 AM EST 4:46 PM EST
Nautical Twilight 5:59 AM EST 5:22 PM EST
Astronomical Twilight 5:24 AM EST 5:56 PM EST
Moon 11:09 PM EST (12/5) 11:21 AM EST (12/5)
Length of Visible Light 10h 11m
Length of Day
9h 07m
Waning Gibbous, 60% of the Moon is Illuminated
Dec 5
Waning Gibbous
Dec 6
Last Quarter
Dec 13
New
Dec 20
First Quarter
Dec 28
Full

Hourly Weather History & Observations

Time (EST) Temp. Windchill Dew Point Humidity Pressure Visibility Wind Dir Wind Speed Gust Speed Precip Events Conditions
12:54 AM 51.1 °F - 48.9 °F 92% 29.88 in 4.0 mi Calm Calm - 0.01 in Rain Light Rain
1:11 AM 51.8 °F - 48.2 °F 88% 29.86 in 2.5 mi Calm Calm - 0.04 in Rain Rain
1:21 AM 51.8 °F - 50.0 °F 94% 29.85 in 3.0 mi Calm Calm - 0.06 in Rain Light Rain
1:28 AM 50.0 °F - 48.2 °F 94% 29.85 in 2.5 mi Calm Calm - 0.07 in Rain Light Rain
1:42 AM 48.2 °F - 46.4 °F 93% 29.84 in 3.0 mi Calm Calm - 0.08 in Rain Light Rain
1:44 AM 48.2 °F - 46.4 °F 93% 29.84 in 2.5 mi NNW 4.6 mph - 0.08 in Rain Light Rain
1:51 AM 48.2 °F - 48.2 °F 100% 29.85 in 2.0 mi NNW 3.5 mph - 0.08 in Rain Light Rain
1:54 AM 48.9 °F - 48.0 °F 97% 29.86 in 2.0 mi Calm Calm - 0.08 in Rain Light Rain
2:05 AM 48.2 °F - 46.4 °F 93% 29.84 in 1.5 mi Calm Calm - 0.00 in   Overcast
2:17 AM 46.4 °F 45.2 °F 46.4 °F 100% 29.83 in 0.8 mi NNW 3.5 mph - 0.00 in Rain Light Rain
2:26 AM 46.4 °F 45.2 °F 46.4 °F 100% 29.83 in 1.0 mi NNW 3.5 mph - 0.00 in   Overcast
2:54 AM 46.0 °F 44.8 °F 45.0 °F 96% 29.84 in 1.5 mi West 3.5 mph - 0.00 in Rain Light Rain
3:02 AM 48.2 °F - 46.4 °F 93% 29.85 in 3.0 mi WNW 8.1 mph - 0.00 in Rain Light Rain
3:26 AM 50.0 °F - 44.6 °F 82% 29.86 in 8.0 mi West 8.1 mph 20.7 mph 0.06 in Rain Light Rain
3:54 AM 48.9 °F - 44.1 °F 83% 29.88 in 10.0 mi WSW 5.8 mph 18.4 mph 0.07 in Rain Light Rain
4:54 AM 48.0 °F - 43.0 °F 83% 29.89 in 10.0 mi WNW 5.8 mph - 0.01 in Rain Light Rain
5:54 AM 44.1 °F - 44.1 °F 100% 29.90 in 10.0 mi Calm Calm - 0.02 in   Mostly Cloudy
6:54 AM 43.0 °F - 41.0 °F 93% 29.91 in 10.0 mi Calm Calm - N/A   Overcast
7:54 AM 41.0 °F - 39.0 °F 93% 29.92 in 10.0 mi Calm Calm - N/A   Scattered Clouds
9:54 AM 48.0 °F - 33.1 °F 56% 29.94 in 10.0 mi West 8.1 mph - N/A   Mostly Cloudy
10:54 AM 46.0 °F 41.9 °F 33.1 °F 61% 29.95 in 10.0 mi North 8.1 mph 24.2 mph N/A   Mostly Cloudy
11:54 AM 43.0 °F 36.4 °F 28.9 °F 58% 29.96 in 10.0 mi NW 12.7 mph 21.9 mph 0.00 in   Overcast
12:54 PM 42.1 °F 36.1 °F 28.0 °F 58% 29.96 in 10.0 mi NW 10.4 mph 16.1 mph N/A   Overcast
1:54 PM 39.0 °F 32.3 °F 23.0 °F 53% 29.99 in 10.0 mi WNW 10.4 mph 20.7 mph N/A   Overcast
2:54 PM 37.9 °F 32.1 °F 21.9 °F 53% 30.02 in 10.0 mi WNW 8.1 mph 18.4 mph N/A   Overcast
3:54 PM 37.0 °F 30.4 °F 21.0 °F 52% 30.04 in 9.0 mi WNW 9.2 mph 19.6 mph 0.00 in Snow Light Snow
4:54 PM 34.0 °F 25.5 °F 21.0 °F 59% 30.07 in 9.0 mi West 11.5 mph - 0.00 in Snow Light Snow
5:54 PM 34.0 °F 28.8 °F 21.0 °F 59% 30.09 in 10.0 mi NW 5.8 mph - 0.00 in   Overcast
6:54 PM 33.1 °F 24.9 °F 16.0 °F 50% 30.11 in 10.0 mi WNW 10.4 mph 17.3 mph N/A   Overcast
7:54 PM 32.0 °F 24.2 °F 15.1 °F 50% 30.15 in 10.0 mi NNW 9.2 mph 18.4 mph N/A   Overcast
8:54 PM 30.9 °F 21.7 °F 12.0 °F 46% 30.16 in 10.0 mi NNW 11.5 mph 20.7 mph N/A   Overcast
9:54 PM 30.0 °F 22.4 °F 10.9 °F 45% 30.18 in 10.0 mi NW 8.1 mph 20.7 mph N/A   Overcast
10:54 PM 28.9 °F - 12.0 °F 49% 30.19 in 10.0 mi Calm Calm - N/A   Mostly Cloudy
11:54 PM 28.9 °F 22.8 °F 12.0 °F 49% 30.20 in 10.0 mi Variable 5.8 mph - N/A   Overcast